Content
SEND FEEDBACK

Daily
Averages
Monthly
Summary
United Kingdom

FROGMORE, ENGLAND


Home > Europe > United Kingdom > England
Elevation: 276 feet     Latitude: 51 42N     Longitude: 000 18W

WEATHER
 
SELECT A DAY
Number of Records: 153,186;   Date Range: 7/1/96 - 10/20/14
 
SHARE

PRINT THIS DATA

[ ← Previous Day ]
WEATHER ALMANAC - OCTOBER 12, 2013
[ Next Day → ]
[ °C ]   °F
Weather ElementAverageHighLow
Temperature52.8 °F57.2 °F (12:50 pm)48.2 °F (8:50 pm)
Dewpoint45.8 °F51.8 °F (3:50 am)41 °F (1:50 pm)
Humidity76.7 %94 % (5:50 am)45 % (3:50 pm)
Barometer30.06 in30.14 in (12:50 pm)29.98 in (3:50 am)
Wind Speed8.4 mph17.3 mph (12:50 am)
Weather ElementAverage
Visibility8.5 mi
Wind DirectionESE (120.9 °)

Weather ElementTotal
Precipitation---
Heating Degree Days12.3 (Base 65)
Growing Degree Days2.7 (Base 50)
Averaged from 33 records on October 12, 2013
WEATHER CONDITIONS BREAKOUT
WIND DIRECTION BREAKOUT
WEATHER BY HOUR - OCTOBER 12, 2013
[ °C ]   °F
Local TimeTemperatureDewpointHumidityBarometerVisibilityWind DirectionWind SpeedGust SpeedPrecipitationEventsConditions
12:50 AM53.6 °F50.0 °F88 %30.04 in6.2 miNNE (30°)17.3 mphOvercast
1:50 AM53.6 °F50.0 °F88 %30.04 in6.2 miNNE (30°)16.1 mphOvercast
2:50 AM55.4 °F50.0 °F82 %30.01 in6.2 miNNE (30°)17.3 mphMostly Cloudy
3:50 AM54.0 °F51.0 °F86 %29.99 in10.0 miNNE (30°)17.3 mphMostly Cloudy
3:50 AM55.4 °F51.8 °F88 %29.98 in6.2 miNNE (30°)17.3 mphMostly Cloudy
4:50 AM55.4 °F51.8 °F88 %29.98 in3.1 miNNE (30°)17.3 mphMostly Cloudy
5:50 AM53.6 °F51.8 °F94 %30.01 in6.2 miEast (80°)10.4 mphMostly Cloudy
6:50 AM51.8 °F48.2 °F88 %30.04 in6.2 miEast (100°)9.2 mphMostly Cloudy
6:50 AM51.0 °F49.0 °F90 %30.06 in7.0 miEast (100°)9.2 mphRainLight Rain
7:10 AM50.0 °F48.2 °F94 %30.04 in6.2 miEast (100°)8.1 mphMostly Cloudy
7:50 AM50.0 °F46.4 °F87 %30.06 in6.2 miEast (90°)8.1 mphMostly Cloudy
8:24 AM50.0 °F46.4 °F87 %30.09 in6.2 miESE (110°)8.1 mphMostly Cloudy
8:50 AM50.0 °F44.6 °F82 %30.09 in6.2 miESE (110°)10.4 mphScattered Clouds
9:50 AM53.0 °F44.0 °F62 %30.12 in16.0 miESE (120°)6.9 mphScattered Clouds
9:50 AM53.6 °F44.6 °F72 %30.09 in6.2 miESE (120°)6.9 mphMostly Cloudy
10:50 AM53.6 °F42.8 °F67 %30.12 in6.2 miEast (80°)9.2 mphPartly Cloudy
11:50 AM55.4 °F42.8 °F63 %30.12 in6.2 miEast (90°)9.2 mphScattered Clouds
12:50 PM56.0 °F42.0 °F50 %30.14 in25.0 miEast (80°)9.2 mphPartly Cloudy
12:50 PM57.2 °F42.8 °F59 %30.12 in6.2 miEast (80°)9.2 mphScattered Clouds
1:50 PM55.4 °F41.0 °F58 %30.12 in6.2 miEast (90°)9.2 mphScattered Clouds
2:50 PM57.2 °F41.0 °F55 %30.09 in6.2 miEast (100°)6.9 mphMostly Cloudy
3:50 PM56.0 °F41.0 °F45 %30.09 in31.0 miNE (40°)4.6 mphScattered Clouds
3:50 PM55.4 °F41.0 °F58 %30.09 in6.2 miNE (40°)4.6 mphMostly Cloudy
4:50 PM55.4 °F41.0 °F58 %30.06 in6.2 miNNE (30°)4.6 mphMostly Cloudy
5:50 PM53.6 °F42.8 °F67 %30.06 in6.2 miNE (50°)2.3 mphMostly Cloudy
6:50 PM51.8 °F44.6 °F76 %30.06 in6.2 miWest (280°)3.5 mphMostly Cloudy
6:50 PM51.0 °F45.0 °F74 %30.07 in22.0 miWest (280°)3.5 mphScattered Clouds
7:50 PM50.0 °F44.6 °F82 %30.06 in6.2 miNW (320°)2.3 mphMostly Cloudy
8:50 PM48.2 °F46.4 °F93 %30.04 in6.2 miNW (310°)4.6 mphScattered Clouds
9:50 PM49.0 °F46.0 °F83 %30.05 in11.0 miWest (260°)3.5 mphMostly Cloudy
9:50 PM48.2 °F46.4 °F93 %30.04 in6.2 miWest (260°)3.5 mphScattered Clouds
10:50 PM50.0 °F46.4 °F87 %30.04 in6.2 miWSW (240°)2.3 mphMostly Cloudy
11:50 PM50.0 °F46.4 °F87 %30.01 in6.2 miWSW (250°)5.8 mphOvercast
Hourly data recorded from EGWU, located miles away from Frogmore, England







STORIES FROM OUR PARTNERS